www.pogodaiklimat.ru

Погода и климат >> Архив погоды >> Узбекистан >> Фергана


АРХИВ ПОГОДЫ в Фергане

Время (UTC), дата Ветер
(напр.,м/с)
 
Видим.   Явления Облачность Т
(С)
Тd
(С)
f
(%)
Тe
(С)
Тes
(С)
Комфортность P
(гПа)
Po
(гПа)
Тmin
(С)
Tmax
(С)
R
(мм)
R24
(мм)
S
(см)
21 12.06 В 2 н/о ясно +16.1 +10.6 70 +16 +16 холодно 1012.5 946.5
00 13.06 ЮВ 1 50 км ясно +14.8 +10.0 73 +15 +15 прохладно 1012.2 945.9 +1.2
03 13.06 Ю 1 50 км ясно +22.5 +11.7 50 +25 +33 комфорт 1010.2 945.8
06 13.06 С 1 50 км ясно +26.4 +11.3 39 +28 +50 жарко 1008.3 944.8 +14.5
09 13.06 З 2 10 км 1/1 1000 м
[Cu med, cong]
+29.4 +9.7 29 +29 +45 жарко 1007.1 944.3
12 13.06 ЮВ 1 20 км 3/3 1000 м
[Cu med, cong]
+30.5 +8.5 25 +30 +34 жарко 1004.7 942.2
15 13.06 штиль 0 50 км ясно +23.1 +14.9 60 +27 +27 душно 1005.6 941.6 +30.6
18 13.06 ЮВ 2 н/о ясно +20.3 +12.1 59 +23 +23 комфорт 1006.2 941.6 +30.6
21 13.06 ЮВ 2 н/о ясно +18.7 +11.2 62 +20 +20 по сезону 1005.5 940.6
00 14.06 ЮВ 2 50 км 3/0
[]
+15.3 +11.8 80 +15 +15 прохладно 1006.3 940.6
03 14.06 штиль 0 50 км 5/0
[Ci fib]
+23.8 +12.5 49 +26 +34 жарко 1004.8 941.0
06 14.06 СВ 1 50 км 8/0
[Ci]
+30.1 +9.3 27 +30 +48 жарко 1003.0 940.5 +15.0
09 14.06 С 1 10 км 4/3 600 м
[Cu med, cong Ci fib]
+32.7 +11.7 28 +33 +47 жарко 1001.1 939.4
12 14.06 ЮЗ 2 10 км 3/3 600 м
[Cu med, cong Ci fib]
+33.4 +6.7 19 +31 +35 жарко 1000.6 938.9
15 14.06 ЮВ 1 10 км 10/8 1000 м
[Sc Ac trans Ci fib]
+26.7 +17.7 58 +31 +31 душно 1002.1 939.2 +33.6
18 14.06 СВ 2 н/о в посл. час ливневой дождь 10/4 600 м
[Cb cap Ac trans]
+25.8 +10.2 37 +27 +27 жарко 1003.7 940.4 +33.6
21 14.06 штиль 0 н/о 10/3 600 м
[Cb cap Ac trans]
+23.2 +11.0 46 +25 +25 комфорт 1003.9 940.1
00 15.06 штиль 0 50 км 8/3 1000 м
[Sc Ac trans Ci fib]
+21.9 +11.1 50 +24 +24 комфорт 1004.0 939.8
03 15.06 штиль 0 50 км 8/0
[Ci fib]
+28.0 +12.0 37 +29 +37 жарко 1002.9 940.1
06 15.06 З 1 20 км 10/3 1000 м
[Sc Ac As Ci fib]
+30.0 +17.3 46 +34 +42 очень
душно
1003.3 941.0 +20.2 0.0
09 15.06 Ю 2 20 км в посл. час гроза 10/3 600 м
[Cb cap Ac As Ci ing]
+29.8 +14.5 39 +32 +38 душно 1005.3 942.8
12 15.06 ЮЗ 3 20 км {гроза} 10/3 1000 м
[Cb cap Ac As Ci fib]
+28.3 +12.6 38 +30 +31 жарко 1006.0 943.0
15 15.06 ЮЗ 3 10 км 9/5 1000 м
[Sc Ac As Ci ing]
+27.6 +7.6 28 +27 +27 жарко 1006.8 943.6 +32.2
18 15.06 ЮВ 1 н/о 4/0
[Ac cuf]
+21.6 +9.5 46 +23 +23 комфорт 1008.5 943.9 +32.2
21 15.06 В 2 н/о ясно +20.7 +8.0 44 +23 +23 комфорт 1007.5 942.8
00 16.06 штиль 0 50 км ясно +16.6 +9.5 63 +17 +17 прохладно 1008.5 942.9
03 16.06 З 1 50 км ясно +25.2 +10.3 39 +26 +35 жарко 1007.3 943.6
06 16.06 С 2 50 км 6/1 600 м
[Cu hum Cs]
+29.0 +11.5 34 +30 +45 жарко 1005.9 943.2 +15.4
09 16.06 З 2 50 км 8/3 600 м
[Cu hum Cs]
+33.3 +10.9 25 +33 +43 жарко 1003.9 942.1
12 16.06 СЗ 2 10 км 3/1 600 м
[Cu hum Cc]
+33.7 +13.0 29 +34 +39 очень
жарко
1003.0 941.3
15 16.06 З 1 10 км 5/1 600 м
[Cu hum Ac trans Cc]
+26.8 +17.1 55 +31 +31 душно 1004.6 941.5 +33.9
18 16.06 Ю 1 н/о 3/0
[Ci fib]
+21.9 +13.4 58 +25 +25 комфорт 1006.5 942.2 +33.9
21 16.06 Ю 1 н/о 1/0
[Ci fib]
+20.7 +9.8 50 +23 +23 комфорт 1006.2 941.6
00 17.06 ЮВ 1 50 км ясно +19.4 +10.3 56 +22 +22 комфорт 1006.4 941.5
03 17.06 СЗ 1 50 км ясно +25.7 +12.0 42 +27 +36 жарко 1006.2 942.7
06 17.06 С 2 50 км 3/3 1000 м
[Cu med, cong]
+28.9 +11.9 35 +30 +43 жарко 1003.9 941.2 +19.2
09 17.06 С 2 50 км 3/3 1000 м
[Cu med, cong]
+32.2 +11.1 27 +32 +44 жарко 1003.9 941.9
12 17.06 СЗ 1 50 км 4/1 1000 м
[Cu med, cong Ac lent Ci fib]
+33.1 +11.3 26 +33 +37 жарко 1001.8 940.1
15 17.06 штиль 0 50 км 6/0
[Ac cast Cc]
+25.4 +19.2 69 +31 +31 очень
душно
1004.0 940.8 +33.5
18 17.06 ЮВ 2 н/о 3/0
[Ac lent]
+22.1 +13.8 59 +25 +25 комфорт 1004.3 940.2 +33.5
21 17.06 В 1 н/о ясно +20.3 +11.7 58 +23 +23 комфорт 1004.0 939.5
00 18.06 ЮВ 2 50 км 4/0
[Ac cuf]
+18.7 +11.0 61 +20 +20 по сезону 1004.9 940.1
03 18.06 СЗ 1 50 км 10/3 1000 м
[Cb cap Ac cast Ci fib]
+25.5 +15.5 54 +29 +32 душно 1004.7 941.3
06 18.06 СЗ 2 50 км 10/1 1000 м
[Cu med, cong Ac cast Ci fib]
+30.0 +15.9 43 +33 +42 душно 1002.1 939.9 +18.5
09 18.06 Ю 2 20 км 3/3 1000 м
[Cu med, cong Ci fib]
+33.2 +16.1 36 +36 +48 очень
душно
1000.1 938.6
12 18.06 ЮВ 3 20 км 8/3 1000 м
[Cu med, cong Ac trans Ci fib]
+31.8 +15.6 38 +34 +36 душно 1000.6 938.8
15 18.06 Ю 2 20 км 10/0
[Ac trans Ci fib]
+29.0 +14.3 41 +31 +31 жарко 1001.7 939.2 +34.0
18 18.06 штиль 0 н/о 8/0
[Ac trans Ci fib]
+22.3 +13.7 58 +25 +25 комфорт 1004.7 940.7 +34.0
21 18.06 Ю 1 н/о 6/0
[Ci fib]
+20.1 +12.7 62 +23 +23 комфорт 1004.5 940.0
00 19.06 ЮВ 1 50 км 10/0
[Ac trans Ci fib]
+17.8 +12.2 70 +19 +19 по сезону 1005.7 940.6
03 19.06 ЮЗ 2 50 км 8/0
[Ci fib]
+25.0 +15.9 57 +28 +34 жарко 1004.5 941.0
06 19.06 СЗ 1 50 км 8/1 1000 м
[Cu med, cong Ac cast Ci fib]
+28.7 +13.0 38 +30 +42 жарко 1003.3 940.6 +17.6
09 19.06 СЗ 2 20 км 8/3 1000 м
[Sc Ac lent Ci fib]
+32.8 +12.3 29 +33 +41 жарко 1000.7 939.0
12 19.06 З 1 10 км 10/4 1000 м
[Sc Ac cast Ci fib]
+31.2 +15.2 38 +34 +35 душно 1001.3 939.3
15 19.06 ЮВ 3 50 км в посл. час дождь {ливн. осадки} 10/4 1000 м
[Sc Ac cast Ci sp]
+25.0 +10.5 40 +26 +26 жарко 1004.8 941.2 +33.1
18 19.06 В 1 н/о в посл. час ливневой дождь 10/5 1000 м
[Sc Ac cast]
+24.4 +13.6 51 +27 +27 жарко 1005.8 941.9 +33.1 0.0

 

Местоположение метеостанции Фергана (Ферганская область, Узбекистан): широта 40.37 долгота 71.75 высота над уровнем моря 577 м.

В архиве по умолчанию представлена погода в Фергане за последнюю неделю. Архивные данные за месяц целиком и за предыдущие месяцы, начиная с января 2011 года, Вы можете получить, выбрав интересующий диапазон дат из раскрывающегося списка и нажав кнопку "Ввод!".


*Определитесь, кто Вы:
робот инопланетянин человек

Внимание! Время в таблицах - всемирное. Для получения местного времени необходимо прибавить поправку, которая равна 5 ч.

Смотрите также архив погоды в соседних городах и на ближайших метеорологических станциях:

Погода в Куве (Ферганская область, Узбекистан) (31 км)
Погода в Бозе (Андижанская область, Узбекистан) (37 км)
Погода в Юбилейной (Андижанская область, Узбекистан) (45 км)
Погода в Шахимардане (Ферганская область, Узбекистан) (50 км)
Погода в Андижан (Андижанская область, Узбекистан) (63 км)
Погода в Сарыканде (Андижанская область, Узбекистан) (69 км)
Погода в Намангане (Намаганская область, Узбекистан) (69 км)
Погода в Коканде (Ферганская область, Узбекистан) (71 км)
Погода в Ноокате (Ошская область, Киргизия) (75 км)
Погода в Папе (Намаганская область, Узбекистан) (78 км)

Пояснения к столбцам:

Ветер - указаны скорость ветра в м/с - средняя за 10 мин, порывы в срок и между сроками (в фигурных скобках) и направление, откуда дует ветер: С - северный, СВ - северо-восточный, В - восточный, ЮВ - юго-восточный, Ю - южный, ЮЗ - юго-западный, З - западный, СЗ - северо-западный.
Видимость - горизонтальная дальность видимости в метрах или километрах. При видимости от 1 до 10 км при отсутствии осадков обычно наблюдается дымка, при ухудшении видимости до 1 км и менее - туман. В сухую погоду видимость может ухудшаться дымом, пылью или мглою.
Явления - указаны атмосферные явления, наблюдавшиеся в срок или в последний час перед сроком; фигурными скобками обозначены явления, наблюдавшиеся между сроками (за 1-3 часа до срока); квадратными скобками обозначены град или гололедные отложения с указанием их диаметра в мм.
Облачность - указаны через наклонную черту общая и нижняя облачность в баллах и высота нижней границы облаков в метрах; квадратными скобками обозначены формы облаков: Ci - перистые, Cs - перисто-слоистые, Cc - перисто-кучевые, Ac - высококучевые, As - высокослоистые, Sc - слоисто-кучевые, Ns - слоисто-дождевые, Cu - кучевые, Cb - кучево-дождевые. Подробнее классификацию облаков см. в Атласе облаков (PDF).
T - Температура воздуха - температура, измеренная на высоте 2 м над землей.
Td - Температура точки росы - температура, при понижении до которой содержащийся в воздухе водяной пар достигнет насыщения.
f - Относительная влажность воздуха - влажноcть воздуха, измеренная на высоте 2 м над землей.
Te - Эффективная температура - температура, которую ощущает одетый по сезону человек в тени. Характеристика душности погоды. При расчете учитывается влияние влажности воздуха и скорости ветра на теплоощущения человека.
Tes - Эффективная температура на солнце - температура, которую ощущает человек, с поправкой на солнечный нагрев. Характеристика знойности погоды. Зависит от высоты солнца над горизонтом, облачности и скорости ветра. Ночью, в пасмурную погоду, а также при ветре 12 м/с и более поправка равна нулю.
P - Атмосферное давление - приведенное к уровню моря атмосферное давление.
Po - Атмосферное давление - измеренное на уровне метеостанции атмосферное давление.
Tmin - Минимальная температура - минимум температуры воздуха на высоте 2 м над землей.
Tmax - Максимальная температура - максимум температуры воздуха на высоте 2 м над землей.
R - Количество осадков - Количество выпавших осадков за период времени, мм. При наведении курсора мыши на число - период времени, за который выпало указанное количество осадков.
R24 - Количество осадков - Количество выпавших осадков за 24 часа, мм.
S - Снежный покров - Высота снежного покрова, см. При наведении курсора мыши на число - состояние снежного покрова и степень покрытия местности в баллах.